Location: Asheville, NC
(35.6000°N, 82.5500°W)
Time: 16:13:25
(UTC-05:00)

Tiangong 2 - Pass Details

Date: 09 December 2017
Orbit: 384 x 390 km, 42.8° (Epoch: 16 January)

Event Time Altitude Azimuth Distance (km) Brightness Sun altitude
Exits shadow 06:36:47 16° 283° (WNW) 1,118 2.7 -10.4°
Maximum altitude 06:39:06 48° 212° (SSW) 514 1.6 -9.9°
Drops below altitude 10° 06:42:10 10° 136° (SE) 1,406 5.1 -9.3°
Sets 06:44:17 0° 131° (SE) 2,259 6.6 -8.9°
